[[{"header":{"parameterUnit":"m.s-1","parameterCategory":1,"la1":30.2991,"la2":30.254,"lo1":-89.0895,"lo2":-89.0444,"dy":0.0017,"dx":0.0017,"nx":28,"ny":28,"refTime":"2024-03-18T21:00:00:Z","depth":0,"parameterNumber":2,"parameterNumberName":"U-component_of_WINDS"},"data":[0,0,0,0,0,0,0,0,0,0,0,0,0,0,0,0,0,0,0,0,0,0,0,0,0,0,0,0,0,0,0,0,0,0,0,0,0,0,0,0,0,0,0,0,0,0,0,0,0,0,0,0,0,0,0,0,0,0,0.9866,0.9866,0,0.9884,0.9884,0.9884,0.9894,0.9894,0.9894,0.9894,0.9911,0.9911,0.9912,0,0,0,0,0,0,0,0,0,0,0,0,0,0.9839,0.984,0.9866,0.9866,0.9867,0.9884,0.9884,0.9884,0.9894,0.9894,0.9894,0.9894,0.9911,0.9911,0.9912,0,0,0,0,0,0,0,0,0,0,0,0,0,0.9853,0.984,0.9866,0.9873,0.9874,0.9884,0.9884,0.9884,0.9894,0.9894,0.9894,0.9894,0.9911,0.9911,0.9912,0.9915,0,0,0.9914,0.9914,0,0,0,0,0,0,0,0,0.9853,0.9854,0.9872,0.9873,0.9874,0.9887,0.9881,0.9895,0.9894,0.9886,0.9894,0.9894,0.9903,0.9904,0.9907,0.9916,0.9917,0.9914,0.9914,0.9915,0.9915,0,0,0,0,0,0,0,0.9852,0.9854,0.9873,0.9872,0.9873,0.9875,0.9878,0.9884,0.9894,0.9887,0.9888,0.989,0.9903,0.9907,0.9908,0.9917,0.9914,0.9914,0.9915,0.9915,0.9929,0.9929,0,0,0,0,0,0,0.985,0.9853,0.9873,0.9874,0.9863,0.9876,0.9878,0.9883,0.9894,0.9896,0.989,0.989,0.9905,0.9907,0.9908,0.9913,0.9915,0.9915,0.9916,0.9929,0.9929,0.9929,0,0,0,0,0,0,0.9849,0.9851,0.9872,0.9863,0.9866,0.9876,0.9881,0.9883,0.9886,0.9896,0.9898,0.9891,0.9906,0.9907,0.9913,0.9914,0.9915,0.9916,0.9929,0.9929,0.9929,0.9922,0,0,0,0,0,0,0.9848,0.9851,0.9853,0.9863,0.9867,0.9877,0.9881,0.9883,0.9887,0.9888,0.9898,0.99,0.9906,0.9912,0.9914,0.9915,0.9917,0.9929,0.9929,0.9929,0.9922,0.9922,0.9921,0,0,0,0,0,0.9847,0.985,0.9853,0.9855,0.9869,0.9877,0.9879,0.9886,0.9887,0.9889,0.9895,0.9899,0.9913,0.9913,0.9915,0.9916,0.9929,0.9929,0.9929,0.9923,0.9922,0.9921,0,0,0,0,0,0,0.9838,0.9851,0.9855,0.9861,0.9868,0.9879,0.9881,0.9885,0.9891,0.9892,0.99,0.9902,0.9907,0.9912,0.9911,0.9919,0.9922,0.9922,0.9916,0.9916,0.9915,0.9914,0.9917,0,0,0,0,0,0.9837,0.9843,0.9854,0.9858,0.9861,0.987,0.9874,0.9879,0.9886,0.9889,0.9896,0.9903,0.9909,0.9912,0.9918,0.9923,0.9925,0.9924,0.9924,0.9924,0.9924,0.9927,0.9926,0.9929,0.9929,0.9929,0,0,0.9835,0.9842,0.9845,0.9857,0.9862,0.9868,0.9873,0.9878,0.9882,0.989,0.9896,0.9901,0.9909,0.9915,0.9917,0.9919,0.9924,0.9924,0.9923,0.9924,0.9926,0.9926,0.9926,0.9929,0.9929,0.9929,0,0,0.9833,0.9839,0.9844,0.985,0.9859,0.9865,0.9866,0.9876,0.988,0.9886,0.9892,0.9897,0.9907,0.9912,0.9916,0.9917,0.9921,0.9918,0.9916,0.9918,0.9918,0.9918,0.9918,0.9918,0.9918,0.9918,0.9918,0,0.9828,0.9837,0.9845,0.9851,0.9855,0.9863,0.9867,0.9872,0.9883,0.9885,0.9887,0.99,0.9906,0.9912,0.9913,0.9916,0.9917,0.9917,0.9918,0.9918,0.9918,0.9918,0.9918,0.9918,0.9918,0.9918,0.9918,0,0.9831,0.9837,0.984,0.985,0.9855,0.986,0.9868,0.9872,0.9876,0.9882,0.9888,0.9896,0.9903,0.9905,0.991,0.9913,0.9913,0.9916,0.9919,0.9917,0.9917,0.9917,0.9918,0.9918,0.9918,0.9918,0,0,0.9824,0.9839,0.984,0.9845,0.9855,0.986,0.9865,0.9873,0.9876,0.9883,0.9887,0.9895,0.9898,0.9903,0.9908,0.991,0.991,0.9912,0.9913,0.9912,0.9913,0.9911,0.9911,0.9912,0.9912,0.9912,0.9913,0,0.9824,0.9834,0.9841,0.9848,0.9854,0.9861,0.9865,0.9872,0.9877,0.9883,0.9888,0.9894,0.9897,0.99,0.9903,0.9909,0.991,0.9909,0.9916,0.9916,0.9914,0.9911,0.9909,0.9909,0.9913,0.9913,0.9913,0,0.9825,0.9832,0.984,0.985,0.9852,0.9856,0.9864,0.9869,0.9877,0.988,0.9886,0.9891,0.9896,0.9898,0.9905,0.9905,0.9908,0.9911,0.9911,0.9912,0.9914,0.9912,0.9909,0.9909,0.9913,0.9913,0.9913,0,0.9819,0.983,0.9837,0.984,0.9852,0.9855,0.986,0.9868,0.9872,0.9878,0.9881,0.9888,0.9892,0.9897,0.9904,0.9905,0.991,0.9913,0.9913,0.9913,0.9914,0.9914,0.9912,0.9916,0.9916,0.9916,0.9916,0,0.9818,0.9822,0.9834,0.9838,0.9843,0.9851,0.9855,0.9861,0.9868,0.9872,0.9879,0.9883,0.9892,0.9897,0.9902,0.9907,0.9909,0.9912,0.9913,0.9911,0.9911,0.9914,0.9914,0.9916,0.9916,0.9916,0.9916,0,0.9812,0.982,0.9827,0.9838,0.9841,0.9844,0.9853,0.9857,0.9863,0.9868,0.987,0.9879,0.9886,0.9893,0.9901,0.9905,0.991,0.9912,0.9907,0.9908,0.9908,0.9908,0.9907,0.9907,0.9912,0.9912,0.9912,0,0.9811,0.9815,0.9826,0.983,0.9835,0.984,0.9845,0.9853,0.9857,0.9867,0.9869,0.9876,0.9882,0.9892,0.9899,0.9905,0.9907,0.9907,0.9908,0.9906,0.9907,0.9907,0.9907,0.9906,0.9906,0.9906,0.9906,0,0.9808,0.9812,0.9818,0.9826,0.9831,0.9838,0.9844,0.9847,0.9856,0.9861,0.9867,0.9872,0.9881,0.9888,0.9895,0.99,0.9904,0.9905,0.9906,0.9904,0.9901,0.9902,0.9906,0.9905,0.9905,0.9905,0.9905,0.9905,0.9804,0.9808,0.9816,0.9823,0.9829,0.9835,0.9839,0.9846,0.9852,0.986,0.9864,0.9871,0.9878,0.9889,0.9894,0.9899,0.99,0.9901,0.9901,0.9901,0.99,0.99,0.99,0.99,0.99,0.99,0.99,0,0.9802,0.9807,0.9814,0.9823,0.9828,0.9833,0.984,0.9844,0.985,0.9857,0.9863,0.987,0.9877,0.9885,0.9891,0.9894,0.9896,0.9896,0.9895,0.9896,0.9899,0.9898,0.9894,0.9894,0.9894,0.9894,0.9894,0.9894,0.9801,0.9807,0.9812,0.9821,0.9827,0.9833,0.9837,0.9843,0.9848,0.9857,0.9862,0.9868,0.9875,0.9882,0.9888,0.989,0.9892,0.9891,0.9894,0.9896,0.9896,0.9897,0.9896,0.9892,0.9892,0.9891,0.9891,0.9891]},{"header":{"parameterUnit":"m.s-1","parameterCategory":1,"la1":30.2991,"la2":30.254,"lo1":-89.0895,"lo2":-89.0444,"dy":0.0017,"dx":0.0017,"nx":28,"ny":28,"refTime":"2024-03-18T21:00:00:Z","depth":0,"parameterNumber":3,"parameterNumberName":"V-component_of_WINDS"},"data":[0,0,0,0,0,0,0,0,0,0,0,0,0,0,0,0,0,0,0,0,0,0,0,0,0,0,0,0,0,0,0,0,0,0,0,0,0,0,0,0,0,0,0,0,0,0,0,0,0,0,0,0,0,0,0,0,0,0,-0.9609,-0.961,0,-0.9708,-0.9709,-0.971,-0.973,-0.9729,-0.9728,-0.9728,-0.983,-0.9834,-0.9837,0,0,0,0,0,0,0,0,0,0,0,0,0,-0.9438,-0.9441,-0.9609,-0.961,-0.9611,-0.9708,-0.9709,-0.9711,-0.973,-0.9729,-0.9728,-0.9727,-0.9829,-0.9833,-0.9837,0,0,0,0,0,0,0,0,0,0,0,0,0,-0.9522,-0.9442,-0.9609,-0.9633,-0.9636,-0.9708,-0.9709,-0.9711,-0.973,-0.9729,-0.9728,-0.9727,-0.9828,-0.9833,-0.9838,-0.9893,0,0,-0.9854,-0.9856,0,0,0,0,0,0,0,0,-0.9517,-0.9528,-0.9628,-0.9631,-0.9635,-0.9705,-0.9687,-0.9772,-0.9731,-0.9694,-0.9728,-0.9726,-0.979,-0.9798,-0.9819,-0.9898,-0.9903,-0.9854,-0.9858,-0.986,-0.9861,0,0,0,0,0,0,0,-0.9511,-0.9524,-0.9648,-0.9629,-0.9634,-0.9639,-0.965,-0.9703,-0.9747,-0.9697,-0.9699,-0.9711,-0.9791,-0.9814,-0.9822,-0.9904,-0.9854,-0.9859,-0.9862,-0.9864,-1.0035,-1.0036,0,0,0,0,0,0,-0.9501,-0.9519,-0.9645,-0.9651,-0.9572,-0.9643,-0.9655,-0.9684,-0.9747,-0.9755,-0.9711,-0.9711,-0.9806,-0.9816,-0.9826,-0.9895,-0.986,-0.9865,-0.9868,-1.0033,-1.0035,-1.0036,0,0,0,0,0,0,-0.9497,-0.9512,-0.9641,-0.9586,-0.9602,-0.9647,-0.968,-0.9686,-0.9709,-0.9757,-0.9766,-0.9726,-0.9805,-0.9818,-0.9877,-0.9899,-0.9867,-0.9872,-1.0031,-1.0034,-1.0036,-1.0035,0,0,0,0,0,0,-0.9492,-0.9511,-0.9532,-0.9586,-0.9605,-0.969,-0.9681,-0.9689,-0.9718,-0.9718,-0.9774,-0.9782,-0.9805,-0.9869,-0.9882,-0.9906,-0.9876,-1.003,-1.0032,-1.0035,-1.0033,-1.0037,-1.004,0,0,0,0,0,-0.9486,-0.9528,-0.9533,-0.9548,-0.9633,-0.9691,-0.9702,-0.9728,-0.972,-0.9742,-0.9773,-0.978,-0.9894,-0.9874,-0.9889,-0.9915,-1.0028,-1.0032,-1.0035,-1.0031,-1.0036,-1.004,0,0,0,0,0,0,-0.9475,-0.9535,-0.9542,-0.9602,-0.9641,-0.9694,-0.9723,-0.9732,-0.9775,-0.9774,-0.9805,-0.9817,-0.9874,-0.99,-0.9877,-0.9973,-0.9961,-0.9967,-0.9953,-0.9958,-0.9961,-0.9954,-0.988,0,0,0,0,0,-0.948,-0.9522,-0.9572,-0.962,-0.964,-0.9678,-0.9704,-0.9721,-0.9763,-0.978,-0.9816,-0.9857,-0.9902,-0.9931,-0.9976,-1.0037,-1.0049,-1.0062,-1.0065,-1.0068,-1.0073,-1.0108,-1.0114,-1.0047,-1.0047,-1.0047,0,0,-0.949,-0.9528,-0.9552,-0.9619,-0.9652,-0.9695,-0.9692,-0.9738,-0.9771,-0.9787,-0.9845,-0.9872,-0.992,-0.998,-1.0008,-1.0004,-1.0094,-1.0072,-1.0073,-1.0077,-1.0112,-1.0118,-1.0124,-1.0049,-1.0049,-1.0048,0,0,-0.953,-0.9563,-0.9607,-0.964,-0.9689,-0.9714,-0.9724,-0.9777,-0.9795,-0.9853,-0.9867,-0.9907,-0.9984,-1.0018,-1.0045,-1.0099,-1.0107,-1.0112,-1.013,-1.0164,-1.0169,-1.0174,-1.0194,-1.0201,-1.0117,-1.0117,-1.0117,0,-0.9537,-0.9602,-0.9628,-0.9674,-0.9704,-0.972,-0.9766,-0.9796,-0.9858,-0.9878,-0.9872,-0.9969,-1.0003,-1.0072,-1.0085,-1.0106,-1.012,-1.0106,-1.0166,-1.0171,-1.0176,-1.0196,-1.0203,-1.0118,-1.0118,-1.0117,-1.0117,0,-0.9608,-0.9653,-0.9683,-0.9742,-0.9774,-0.982,-0.9853,-0.9883,-0.9897,-0.9923,-0.9982,-1.0023,-1.0076,-1.0094,-1.0108,-1.0165,-1.016,-1.016,-1.0149,-1.0183,-1.0202,-1.0209,-1.0118,-1.0118,-1.0118,-1.0118,0,0,-0.9645,-0.9717,-0.9728,-0.9755,-0.9811,-0.9847,-0.9893,-0.9945,-0.997,-1.0012,-1.0052,-1.0117,-1.0117,-1.0148,-1.0166,-1.0196,-1.0237,-1.0192,-1.0194,-1.02,-1.0303,-1.0304,-1.0312,-1.0243,-1.0244,-1.0245,-1.03,0,-0.9693,-0.9775,-0.98,-0.987,-0.9913,-0.993,-0.997,-1.0009,-1.0034,-1.0075,-1.0103,-1.0149,-1.0145,-1.0164,-1.0194,-1.0225,-1.0258,-1.0222,-1.0281,-1.0283,-1.0269,-1.0322,-1.0323,-1.0372,-1.0307,-1.0308,-1.0309,0,-0.9759,-0.9802,-0.9876,-0.9927,-0.9946,-0.9982,-1.0032,-1.007,-1.0114,-1.0131,-1.0166,-1.0181,-1.0231,-1.0217,-1.0286,-1.0261,-1.0286,-1.0306,-1.0308,-1.0315,-1.0299,-1.0331,-1.0388,-1.0396,-1.0321,-1.032,-1.0319,0,-0.978,-0.9856,-0.991,-0.9933,-0.9993,-1.0018,-1.0045,-1.0088,-1.0118,-1.0161,-1.0181,-1.023,-1.0257,-1.0295,-1.0324,-1.031,-1.0391,-1.0379,-1.0407,-1.0406,-1.0424,-1.0422,-1.0486,-1.0439,-1.0439,-1.0438,-1.0438,0,-0.9831,-0.9876,-0.992,-0.9954,-1.0005,-1.0033,-1.0083,-1.011,-1.0149,-1.0189,-1.0206,-1.0243,-1.0278,-1.032,-1.0343,-1.0397,-1.0409,-1.0424,-1.043,-1.0424,-1.0422,-1.0441,-1.0439,-1.044,-1.044,-1.044,-1.0439,0,-0.9863,-0.9894,-0.9955,-1.0007,-1.0021,-1.0056,-1.0101,-1.0135,-1.0161,-1.0211,-1.0224,-1.0265,-1.0316,-1.0348,-1.0412,-1.0427,-1.0487,-1.0491,-1.0472,-1.0475,-1.0501,-1.0499,-1.0581,-1.0594,-1.0537,-1.0537,-1.0538,0,-0.9894,-0.9929,-0.9985,-1.0012,-1.0039,-1.0083,-1.0113,-1.0143,-1.0174,-1.0228,-1.0255,-1.0306,-1.0349,-1.0428,-1.0465,-1.0514,-1.052,-1.0545,-1.0527,-1.052,-1.0521,-1.0519,-1.0523,-1.0548,-1.0549,-1.0549,-1.055,0,-0.9946,-0.996,-1.0003,-1.0051,-1.0087,-1.0127,-1.0167,-1.0189,-1.0225,-1.0259,-1.0311,-1.0344,-1.0409,-1.046,-1.0513,-1.054,-1.0552,-1.0555,-1.0564,-1.0558,-1.0546,-1.0554,-1.0481,-1.0553,-1.0553,-1.0552,-1.0552,-1.0552,-0.9979,-1.0011,-1.0055,-1.0103,-1.0136,-1.0173,-1.0207,-1.0238,-1.0281,-1.0336,-1.0351,-1.0405,-1.045,-1.0521,-1.055,-1.0593,-1.059,-1.0603,-1.0607,-1.061,-1.0611,-1.0538,-1.0603,-1.0603,-1.0603,-1.0603,-1.0603,0,-1.0033,-1.0062,-1.0105,-1.0161,-1.0198,-1.0205,-1.0249,-1.0281,-1.0328,-1.0368,-1.041,-1.0469,-1.0519,-1.0559,-1.061,-1.0637,-1.0643,-1.0649,-1.0648,-1.0655,-1.061,-1.0597,-1.0643,-1.0643,-1.0643,-1.0643,-1.0643,-1.0643,-1.0065,-1.012,-1.0139,-1.0211,-1.024,-1.0293,-1.0318,-1.0352,-1.0385,-1.045,-1.0492,-1.0517,-1.0558,-1.0612,-1.0658,-1.0669,-1.0687,-1.0693,-1.0704,-1.0662,-1.0658,-1.0653,-1.0642,-1.0696,-1.0696,-1.0746,-1.0746,-1.0746]}]]